DAL212 MMMX-KIAH

Flight info

Callsign DAL212
Flight time 1h 55m
Altitude 41000
Route IKLAN2A IKLAN UT139 ONGOB UJ35 MAM/N0479F400 DCT CRP HTOWN3
Aircraft B77L/H-SDE1E2E3FGHIJ2J3J4J5M1RWXY/LB1D1

Departure

Time 2026-05-04 19:38
Airport Mexico City Benito Juárez International Airport (MMMX)

Arrival

Time 2026-05-04 21:33
Airport George Bush Intercontinental Airport (KIAH)
Time Latitude Longitude Altitude Speed Heading
2026-05-04 18:44 19.43549 -99.08047 7307 ft 0 kts 333°
2026-05-04 18:46 19.43520 -99.08110 7307 ft 0 kts 332°
2026-05-04 19:26 19.43519 -99.08110 7307 ft 1 kts 332°
2026-05-04 19:27 19.43505 -99.08101 7307 ft 3 kts 323°
2026-05-04 19:27 19.43490 -99.08087 7307 ft 3 kts 308°
2026-05-04 19:27 19.43480 -99.08070 7309 ft 3 kts 291°
2026-05-04 19:27 19.43474 -99.08049 7307 ft 3 kts 275°
2026-05-04 19:28 19.43474 -99.08028 7307 ft 3 kts 262°
2026-05-04 19:28 19.43478 -99.08008 7307 ft 3 kts 251°
2026-05-04 19:28 19.43485 -99.07988 7308 ft 3 kts 243°
2026-05-04 19:28 19.43493 -99.07973 7308 ft 1 kts 239°
2026-05-04 19:29 19.43494 -99.07971 7308 ft 0 kts 239°
2026-05-04 19:31 19.43491 -99.07977 7308 ft 7 kts 239°
2026-05-04 19:31 19.43416 -99.08109 7310 ft 30 kts 240°
2026-05-04 19:32 19.43310 -99.08299 7311 ft 30 kts 239°
2026-05-04 19:32 19.43210 -99.08477 7310 ft 18 kts 239°
2026-05-04 19:32 19.43156 -99.08574 7307 ft 15 kts 241°
2026-05-04 19:32 19.43102 -99.08672 7308 ft 15 kts 236°
2026-05-04 19:33 19.43045 -99.08767 7308 ft 15 kts 239°
2026-05-04 19:33 19.42990 -99.08864 7310 ft 15 kts 239°
2026-05-04 19:33 19.42936 -99.08961 7308 ft 15 kts 239°
2026-05-04 19:33 19.42861 -99.09039 7306 ft 15 kts 210°
2026-05-04 19:34 19.42773 -99.09084 7307 ft 15 kts 194°
2026-05-04 19:34 19.42686 -99.09037 7312 ft 15 kts 118°
2026-05-04 19:34 19.42643 -99.08935 7311 ft 15 kts 112°
2026-05-04 19:34 19.42602 -99.08831 7310 ft 15 kts 112°
2026-05-04 19:35 19.42557 -99.08729 7309 ft 15 kts 115°
2026-05-04 19:35 19.42524 -99.08632 7308 ft 9 kts 107°
2026-05-04 19:35 19.42523 -99.08611 7309 ft 2 kts 85°
2026-05-04 19:35 19.42524 -99.08607 7309 ft 0 kts 77°
2026-05-04 19:36 19.42525 -99.08603 7308 ft 4 kts 70°
2026-05-04 19:36 19.42565 -99.08594 7307 ft 0 kts 345°
2026-05-04 19:36 19.42593 -99.08606 7308 ft 14 kts 334°
2026-05-04 19:37 19.42695 -99.08590 7308 ft 21 kts 46°
2026-05-04 19:37 19.42859 -99.08304 7307 ft 89 kts 59°
2026-05-04 19:37 19.43357 -99.07408 7310 ft 192 kts 60°
2026-05-04 19:37 19.44102 -99.06062 7864 ft 226 kts 59°
2026-05-04 19:38 19.44937 -99.04553 8873 ft 252 kts 57°
2026-05-04 19:38 19.45940 -99.02906 9220 ft 279 kts 56°
2026-05-04 19:38 19.47037 -99.01131 9501 ft 293 kts 56°
2026-05-04 19:38 19.48149 -98.99311 10097 ft 292 kts 56°
2026-05-04 19:39 19.49239 -98.97511 11074 ft 302 kts 56°
2026-05-04 19:39 19.50392 -98.95518 11479 ft 334 kts 59°
2026-05-04 19:39 19.51634 -98.93283 11669 ft 369 kts 59°
2026-05-04 19:39 19.52976 -98.90870 12239 ft 387 kts 58°
2026-05-04 19:40 19.54547 -98.88545 13238 ft 389 kts 50°
2026-05-04 19:40 19.56384 -98.86430 14302 ft 392 kts 45°
2026-05-04 19:40 19.58284 -98.84388 15261 ft 394 kts 44°
2026-05-04 19:40 19.60224 -98.82280 16061 ft 403 kts 45°
2026-05-04 19:41 19.62162 -98.80108 16930 ft 408 kts 46°
2026-05-04 19:41 19.64097 -98.77885 17863 ft 411 kts 46°
2026-05-04 19:41 19.66041 -98.75634 18700 ft 415 kts 46°
2026-05-04 19:41 19.68005 -98.73367 19432 ft 419 kts 45°
2026-05-04 19:42 19.70278 -98.71441 20074 ft 425 kts 26°
2026-05-04 19:42 19.73126 -98.70549 20728 ft 431 kts
2026-05-04 19:42 19.76129 -98.70555 21484 ft 435 kts 353°
2026-05-04 19:42 19.79102 -98.71197 22114 ft 439 kts 347°
2026-05-04 19:43 19.82091 -98.72014 22653 ft 447 kts 346°
2026-05-04 19:43 19.85098 -98.72883 23304 ft 452 kts 345°
2026-05-04 19:43 19.88143 -98.73773 23949 ft 455 kts 345°
2026-05-04 19:43 19.91209 -98.74661 24565 ft 458 kts 345°
2026-05-04 19:44 19.94288 -98.75536 25269 ft 457 kts 345°
2026-05-04 19:44 19.97361 -98.76396 25921 ft 458 kts 345°
2026-05-04 19:44 20.00462 -98.77255 26450 ft 462 kts 346°
2026-05-04 19:44 20.03587 -98.78116 26993 ft 467 kts 346°
2026-05-04 19:45 20.06716 -98.78975 27486 ft 472 kts 346°
2026-05-04 19:45 20.09960 -98.79867 27935 ft 478 kts 346°
2026-05-04 19:45 20.13151 -98.80745 28436 ft 481 kts 345°
2026-05-04 19:45 20.16397 -98.81639 28898 ft 481 kts 345°
2026-05-04 19:46 20.19645 -98.82535 28887 ft 483 kts 345°
2026-05-04 19:46 20.26193 -98.84342 28884 ft 485 kts 345°
2026-05-04 19:46 20.29465 -98.85247 29101 ft 487 kts 345°
2026-05-04 19:47 20.32761 -98.86157 29553 ft 491 kts 345°
2026-05-04 19:47 20.36081 -98.87075 30061 ft 493 kts 345°
2026-05-04 19:47 20.39375 -98.87912 30572 ft 492 kts 349°
2026-05-04 19:47 20.42772 -98.88353 31152 ft 492 kts 355°
2026-05-04 19:48 20.46175 -98.88426 31817 ft 489 kts
2026-05-04 19:48 20.49565 -98.88155 32456 ft 488 kts
2026-05-04 19:48 20.52914 -98.87592 33040 ft 488 kts
2026-05-04 19:48 20.56258 -98.86986 33606 ft 487 kts
2026-05-04 19:49 20.59596 -98.86371 34157 ft 486 kts
2026-05-04 19:49 20.62928 -98.85762 34647 ft 485 kts
2026-05-04 19:49 20.66254 -98.85164 35132 ft 484 kts
2026-05-04 19:49 20.69577 -98.84577 35606 ft 483 kts
2026-05-04 19:50 20.72889 -98.83999 36084 ft 483 kts
2026-05-04 19:50 20.75087 -98.83618 36414 ft 482 kts
2026-05-04 19:50 20.78388 -98.83046 36916 ft 481 kts
2026-05-04 19:50 20.81685 -98.82476 37404 ft 480 kts
2026-05-04 19:51 20.84981 -98.81907 37876 ft 479 kts
2026-05-04 19:51 20.88270 -98.81338 38362 ft 478 kts
2026-05-04 19:51 20.91542 -98.80770 38888 ft 474 kts
2026-05-04 19:51 20.94771 -98.80209 39418 ft 469 kts
2026-05-04 19:52 20.97998 -98.79648 39780 ft 469 kts
2026-05-04 19:52 21.01216 -98.79090 40068 ft 470 kts
2026-05-04 19:52 21.04452 -98.78528 40338 ft 471 kts
2026-05-04 19:52 21.07692 -98.77966 40625 ft 472 kts
2026-05-04 19:53 21.10942 -98.77401 40834 ft 474 kts
2026-05-04 19:53 21.17460 -98.76267 40878 ft 477 kts
2026-05-04 19:54 21.23976 -98.75130 40878 ft 471 kts
2026-05-04 19:54 21.30427 -98.74003 40878 ft 468 kts
2026-05-04 19:55 21.36855 -98.72881 40881 ft 467 kts
2026-05-04 19:55 21.43270 -98.71762 40882 ft 468 kts
2026-05-04 19:56 21.49700 -98.70639 40880 ft 469 kts
2026-05-04 19:56 21.56115 -98.69517 40875 ft 470 kts
2026-05-04 19:57 21.62577 -98.68384 40881 ft 471 kts
2026-05-04 19:57 21.69044 -98.67250 40874 ft 470 kts
2026-05-04 19:58 21.75494 -98.66117 40881 ft 469 kts
2026-05-04 19:58 21.81937 -98.64986 40875 ft 468 kts
2026-05-04 19:59 21.88365 -98.63855 40883 ft 467 kts
2026-05-04 19:59 21.94734 -98.62734 40888 ft 466 kts
2026-05-04 20:00 22.01140 -98.61606 40884 ft 465 kts
2026-05-04 20:00 22.07528 -98.60480 40889 ft 464 kts
2026-05-04 20:01 22.13898 -98.59356 40896 ft 464 kts
2026-05-04 20:01 22.20270 -98.58231 40893 ft 464 kts
2026-05-04 20:02 22.26645 -98.57104 40910 ft 464 kts
2026-05-04 20:02 22.32976 -98.55984 40902 ft 464 kts
2026-05-04 20:03 22.39344 -98.54856 40904 ft 464 kts
2026-05-04 20:03 22.45727 -98.53725 40905 ft 463 kts
2026-05-04 20:04 22.52090 -98.52596 40912 ft 464 kts
2026-05-04 20:04 22.58460 -98.51465 40916 ft 464 kts
2026-05-04 20:05 22.64834 -98.50332 40918 ft 464 kts
2026-05-04 20:05 22.71209 -98.49197 40929 ft 464 kts
2026-05-04 20:06 22.77575 -98.48064 40937 ft 464 kts
2026-05-04 20:06 22.83949 -98.46927 40941 ft 463 kts
2026-05-04 20:07 22.90312 -98.45792 40961 ft 464 kts
2026-05-04 20:07 22.96643 -98.44661 40947 ft 464 kts
2026-05-04 20:08 23.03013 -98.43523 40953 ft 464 kts
2026-05-04 20:08 23.09379 -98.42383 40953 ft 463 kts
2026-05-04 20:09 23.15742 -98.41244 40965 ft 464 kts
2026-05-04 20:09 23.22102 -98.40104 40966 ft 463 kts
2026-05-04 20:10 23.28442 -98.38864 40951 ft 465 kts
2026-05-04 20:10 23.34671 -98.36807 40951 ft 468 kts 12°
2026-05-04 20:11 23.40876 -98.34629 40938 ft 468 kts 12°
2026-05-04 20:11 23.47045 -98.32489 40938 ft 468 kts 12°
2026-05-04 20:12 23.53256 -98.30357 40948 ft 468 kts 11°
2026-05-04 20:12 23.59479 -98.28226 40935 ft 468 kts 11°
2026-05-04 20:13 23.65700 -98.26094 40922 ft 468 kts 11°
2026-05-04 20:13 23.71915 -98.23959 40923 ft 468 kts 11°
2026-05-04 20:14 23.78133 -98.21821 40921 ft 468 kts 11°
2026-05-04 20:14 23.84313 -98.19694 40923 ft 468 kts 11°
2026-05-04 20:15 23.90534 -98.17551 40934 ft 469 kts 11°
2026-05-04 20:15 23.96755 -98.15406 40936 ft 469 kts 11°
2026-05-04 20:16 24.02980 -98.13257 40925 ft 469 kts 11°
2026-05-04 20:16 24.09203 -98.11107 40928 ft 469 kts 11°
2026-05-04 20:17 24.15425 -98.08955 40927 ft 469 kts 11°
2026-05-04 20:17 24.21612 -98.06810 40724 ft 461 kts 11°
2026-05-04 20:17 24.24668 -98.05751 40276 ft 461 kts 11°
2026-05-04 20:18 24.27729 -98.04692 39818 ft 461 kts 11°
2026-05-04 20:18 24.30780 -98.03637 39391 ft 460 kts 11°
2026-05-04 20:18 24.33833 -98.02580 38972 ft 459 kts 11°
2026-05-04 20:18 24.36879 -98.01524 38568 ft 458 kts 11°
2026-05-04 20:19 24.39911 -98.00474 38003 ft 459 kts 11°
2026-05-04 20:19 24.42932 -97.99428 37338 ft 464 kts 11°
2026-05-04 20:19 24.46015 -97.98362 37125 ft 467 kts 11°
2026-05-04 20:19 24.49129 -97.97283 36959 ft 471 kts 11°
2026-05-04 20:20 24.52259 -97.96196 36954 ft 471 kts 11°
2026-05-04 20:20 24.58502 -97.94022 36943 ft 470 kts 11°
2026-05-04 20:21 24.64736 -97.91851 36931 ft 470 kts 11°
2026-05-04 20:21 24.74091 -97.88592 36940 ft 470 kts 11°
2026-05-04 20:22 24.80294 -97.86429 36953 ft 470 kts 11°
2026-05-04 20:22 24.86543 -97.84247 36943 ft 471 kts 11°
2026-05-04 20:23 24.92794 -97.82061 36946 ft 471 kts 11°
2026-05-04 20:23 24.99047 -97.79873 36945 ft 471 kts 11°
2026-05-04 20:24 25.05303 -97.77681 36941 ft 472 kts 11°
2026-05-04 20:24 25.11558 -97.75488 36949 ft 472 kts 11°
2026-05-04 20:25 25.17820 -97.73289 36957 ft 472 kts 11°
2026-05-04 20:25 25.24086 -97.71087 36952 ft 472 kts 11°
2026-05-04 20:26 25.30311 -97.68897 36954 ft 472 kts 11°
2026-05-04 20:26 25.36574 -97.66691 36953 ft 472 kts 11°
2026-05-04 20:27 25.42833 -97.64488 36956 ft 472 kts 11°
2026-05-04 20:27 25.49104 -97.62282 36964 ft 473 kts 11°
2026-05-04 20:28 25.52232 -97.61200 36925 ft 462 kts
2026-05-04 20:28 25.55268 -97.60191 36185 ft 458 kts 13°
2026-05-04 20:28 25.58265 -97.58777 34684 ft 479 kts 19°
2026-05-04 20:28 25.61291 -97.57189 34062 ft 477 kts 18°
2026-05-04 20:29 25.64221 -97.55746 34598 ft 439 kts 15°
2026-05-04 20:29 25.66949 -97.54500 34558 ft 424 kts 14°
2026-05-04 20:29 25.69693 -97.53411 33871 ft 417 kts
2026-05-04 20:29 25.72593 -97.52694 31537 ft 444 kts
2026-05-04 20:30 25.75817 -97.52239 29398 ft 481 kts
2026-05-04 20:30 25.79019 -97.51773 29733 ft 447 kts
2026-05-04 20:30 25.81999 -97.51349 30063 ft 421 kts
2026-05-04 20:30 25.84862 -97.50945 29650 ft 409 kts 358°
2026-05-04 20:31 25.86569 -97.50850 29298 ft 403 kts 354°
2026-05-04 20:34 25.86709 -97.50848 29268 ft 403 kts 354°
2026-05-04 20:34 25.89505 -97.50860 28647 ft 393 kts 352°
2026-05-04 20:34 25.92178 -97.51127 28532 ft 392 kts 343°
2026-05-04 20:35 25.94907 -97.51904 28096 ft 417 kts 336°
2026-05-04 20:35 25.97629 -97.53105 28396 ft 421 kts 330°
2026-05-04 20:35 26.00194 -97.54537 29728 ft 400 kts 326°
2026-05-04 20:35 26.02574 -97.56044 30829 ft 392 kts 324°
2026-05-04 20:36 26.05039 -97.57403 31088 ft 407 kts 335°
2026-05-04 20:36 26.07906 -97.58034 31067 ft 437 kts 350°
2026-05-04 20:36 26.11027 -97.57801 31247 ft 460 kts
2026-05-04 20:36 26.14166 -97.56919 31775 ft 467 kts 10°
2026-05-04 20:37 26.17225 -97.55812 32370 ft 467 kts 11°
2026-05-04 20:37 26.20319 -97.54803 33040 ft 460 kts
2026-05-04 20:37 26.23427 -97.54044 33706 ft 455 kts
2026-05-04 20:37 26.26560 -97.53209 33457 ft 477 kts 10°
2026-05-04 20:38 26.29792 -97.52092 33252 ft 493 kts 10°
2026-05-04 20:38 26.33081 -97.51118 33007 ft 482 kts
2026-05-04 20:38 26.36334 -97.50450 32740 ft 468 kts
2026-05-04 20:38 26.39547 -97.50059 32533 ft 466 kts 357°
2026-05-04 20:39 26.42827 -97.49850 32322 ft 480 kts 355°
2026-05-04 20:39 26.46212 -97.49734 32064 ft 490 kts 355°
2026-05-04 20:39 26.48471 -97.49678 31903 ft 492 kts 354°
2026-05-04 20:39 26.51907 -97.49595 31679 ft 493 kts 354°
2026-05-04 20:40 26.55341 -97.49503 31450 ft 494 kts 355°
2026-05-04 20:40 26.58782 -97.49397 31213 ft 495 kts 355°
2026-05-04 20:40 26.62221 -97.49279 30986 ft 495 kts 355°
2026-05-04 20:40 26.62670 -97.49263 30960 ft 495 kts 355°
2026-05-04 20:41 26.67240 -97.49095 30669 ft 495 kts 355°
2026-05-04 20:42 26.70720 -97.48964 30444 ft 492 kts 355°
2026-05-04 20:42 26.74103 -97.48835 30215 ft 490 kts 355°
2026-05-04 20:42 26.77511 -97.48706 30002 ft 489 kts 355°
2026-05-04 20:42 26.80912 -97.48579 29729 ft 488 kts 355°
2026-05-04 20:43 26.87723 -97.48330 29680 ft 493 kts 355°
2026-05-04 20:43 26.91169 -97.48205 29840 ft 497 kts 355°
2026-05-04 20:43 26.94634 -97.48078 29901 ft 497 kts 355°
2026-05-04 20:44 27.01505 -97.47817 29959 ft 488 kts 356°
2026-05-04 20:44 27.08193 -97.47563 29953 ft 484 kts 356°
2026-05-04 20:45 27.14923 -97.47314 29959 ft 484 kts 356°
2026-05-04 20:45 27.21569 -97.47070 29960 ft 486 kts 356°
2026-05-04 20:46 27.28342 -97.46818 29981 ft 487 kts 356°
2026-05-04 20:46 27.35124 -97.46564 29959 ft 487 kts 356°
2026-05-04 20:47 27.41904 -97.46309 29958 ft 487 kts 356°
2026-05-04 20:47 27.48634 -97.46056 29959 ft 487 kts 356°
2026-05-04 20:48 27.55409 -97.45802 29981 ft 487 kts 356°
2026-05-04 20:48 27.62186 -97.45548 29975 ft 487 kts 356°
2026-05-04 20:49 27.68958 -97.45294 29980 ft 487 kts 356°
2026-05-04 20:49 27.75725 -97.45039 29985 ft 487 kts 356°
2026-05-04 20:50 27.82498 -97.44785 29991 ft 487 kts 356°
2026-05-04 20:50 27.89262 -97.44102 29978 ft 496 kts
2026-05-04 20:51 27.92510 -97.42649 29968 ft 512 kts 21°
2026-05-04 20:51 27.95442 -97.40286 29982 ft 520 kts 32°
2026-05-04 20:51 28.01032 -97.35005 29970 ft 526 kts 33°
2026-05-04 20:52 28.06668 -97.29800 29969 ft 526 kts 32°
2026-05-04 20:52 28.12402 -97.24650 29977 ft 525 kts 32°
2026-05-04 20:53 28.18122 -97.19538 29987 ft 523 kts 32°
2026-05-04 20:53 28.23840 -97.14409 29960 ft 523 kts 31°
2026-05-04 20:54 28.29574 -97.09319 29974 ft 523 kts 31°
2026-05-04 20:54 28.35284 -97.04176 29955 ft 524 kts 31°
2026-05-04 20:55 28.40957 -96.99033 29963 ft 524 kts 31°
2026-05-04 20:55 28.46657 -96.93873 29964 ft 524 kts 31°
2026-05-04 20:56 28.52365 -96.88702 29976 ft 524 kts 31°
2026-05-04 20:56 28.58073 -96.83521 29985 ft 525 kts 31°
2026-05-04 20:57 28.63774 -96.78340 29971 ft 524 kts 31°
2026-05-04 20:57 28.69470 -96.73156 29972 ft 523 kts 31°
2026-05-04 20:58 28.75147 -96.67977 29972 ft 523 kts 31°
2026-05-04 20:58 28.80793 -96.62827 29991 ft 521 kts 30°
2026-05-04 20:59 28.83739 -96.60619 29974 ft 490 kts 17°
2026-05-04 20:59 28.86836 -96.59202 29169 ft 480 kts 11°
2026-05-04 20:59 28.90005 -96.57956 28136 ft 477 kts 10°
2026-05-04 20:59 28.93124 -96.56755 27378 ft 469 kts 10°
2026-05-04 21:00 28.96206 -96.55546 27257 ft 471 kts 19°
2026-05-04 21:00 28.99307 -96.54281 25605 ft 472 kts 12°
2026-05-04 21:00 29.02382 -96.52994 25020 ft 468 kts 12°
2026-05-04 21:00 29.05434 -96.51701 24458 ft 466 kts 12°
2026-05-04 21:01 29.08429 -96.50424 23723 ft 463 kts 12°
2026-05-04 21:01 29.11435 -96.49140 22872 ft 459 kts 12°
2026-05-04 21:01 29.14413 -96.47868 22085 ft 453 kts 13°
2026-05-04 21:01 29.17342 -96.46618 21354 ft 447 kts 13°
2026-05-04 21:02 29.20233 -96.45385 20635 ft 441 kts 13°
2026-05-04 21:02 29.23088 -96.44169 19936 ft 435 kts 14°
2026-05-04 21:02 29.25909 -96.42966 19244 ft 430 kts 14°
2026-05-04 21:02 29.28697 -96.41776 18557 ft 426 kts 15°
2026-05-04 21:03 29.31446 -96.40553 17818 ft 423 kts 18°
2026-05-04 21:03 29.34095 -96.39106 17100 ft 420 kts 22°
2026-05-04 21:03 29.36673 -96.37571 16431 ft 415 kts 23°
2026-05-04 21:03 29.39227 -96.36056 15784 ft 410 kts 22°
2026-05-04 21:04 29.41699 -96.34635 15163 ft 405 kts 22°
2026-05-04 21:04 29.44276 -96.33178 14508 ft 401 kts 22°
2026-05-04 21:04 29.46661 -96.31605 14040 ft 391 kts 35°
2026-05-04 21:04 29.48461 -96.29352 13833 ft 374 kts 52°
2026-05-04 21:05 29.49931 -96.26988 13603 ft 362 kts 51°
2026-05-04 21:05 29.51432 -96.24691 13383 ft 349 kts 50°
2026-05-04 21:05 29.52867 -96.22540 13209 ft 338 kts 50°
2026-05-04 21:05 29.54275 -96.20438 12962 ft 327 kts 50°
2026-05-04 21:06 29.55744 -96.18487 12625 ft 320 kts 42°
2026-05-04 21:06 29.57347 -96.16752 12269 ft 315 kts 39°
2026-05-04 21:06 29.58965 -96.15079 11912 ft 311 kts 39°
2026-05-04 21:06 29.60565 -96.13418 11550 ft 308 kts 39°
2026-05-04 21:07 29.62144 -96.11754 11231 ft 309 kts 40°
2026-05-04 21:07 29.63722 -96.10072 10894 ft 309 kts 40°
2026-05-04 21:07 29.65284 -96.08393 10573 ft 306 kts 41°
2026-05-04 21:07 29.66827 -96.06728 10228 ft 303 kts 41°
2026-05-04 21:08 29.68356 -96.05073 9870 ft 300 kts 41°
2026-05-04 21:08 29.69867 -96.03436 9471 ft 297 kts 42°
2026-05-04 21:08 29.71362 -96.01815 9115 ft 293 kts 42°
2026-05-04 21:08 29.72890 -96.00312 8838 ft 285 kts 34°
2026-05-04 21:09 29.73965 -95.99458 8703 ft 283 kts 32°
2026-05-04 21:09 29.74411 -95.99120 8635 ft 282 kts 31°
2026-05-04 21:09 29.74546 -95.99019 8622 ft 282 kts 31°
2026-05-04 21:09 29.74656 -95.98937 8607 ft 282 kts 31°
2026-05-04 21:10 29.75581 -95.98249 8489 ft 282 kts 31°
2026-05-04 21:10 29.77216 -95.97028 8271 ft 282 kts 31°
2026-05-04 21:10 29.78857 -95.95782 8059 ft 282 kts 32°
2026-05-04 21:11 29.80483 -95.94530 7846 ft 281 kts 32°
2026-05-04 21:11 29.82100 -95.93272 7633 ft 276 kts 32°
2026-05-04 21:11 29.83666 -95.92050 7407 ft 268 kts 32°
2026-05-04 21:11 29.85183 -95.90864 7198 ft 259 kts 33°
2026-05-04 21:12 29.86441 -95.89473 6997 ft 248 kts 61°
2026-05-04 21:12 29.86941 -95.87617 6989 ft 242 kts 84°
2026-05-04 21:12 29.87040 -95.85708 6972 ft 246 kts 88°
2026-05-04 21:12 29.87107 -95.83682 6934 ft 249 kts 88°
2026-05-04 21:13 29.87167 -95.81688 6906 ft 249 kts 88°
2026-05-04 21:13 29.87226 -95.79695 6868 ft 248 kts 88°
2026-05-04 21:13 29.87286 -95.77720 6850 ft 248 kts 88°
2026-05-04 21:13 29.87347 -95.75758 6841 ft 249 kts 88°
2026-05-04 21:14 29.87411 -95.73730 6796 ft 250 kts 88°
2026-05-04 21:14 29.87470 -95.71916 6768 ft 249 kts 88°
2026-05-04 21:14 29.87536 -95.69901 6743 ft 248 kts 89°
2026-05-04 21:14 29.87601 -95.67926 6740 ft 247 kts 88°
2026-05-04 21:15 29.87669 -95.65949 6737 ft 249 kts 88°
2026-05-04 21:15 29.87729 -95.63937 6679 ft 251 kts 88°
2026-05-04 21:15 29.87797 -95.61938 6606 ft 247 kts 88°
2026-05-04 21:15 29.87861 -95.59992 6574 ft 238 kts 88°
2026-05-04 21:16 29.87924 -95.58094 6667 ft 238 kts 88°
2026-05-04 21:16 29.87987 -95.56167 6522 ft 245 kts 89°
2026-05-04 21:16 29.88050 -95.54203 6515 ft 250 kts 89°
2026-05-04 21:16 29.88115 -95.52204 6481 ft 249 kts 89°
2026-05-04 21:17 29.88179 -95.50217 6452 ft 247 kts 89°
2026-05-04 21:17 29.88242 -95.48247 6421 ft 245 kts 89°
2026-05-04 21:17 29.88304 -95.46294 6408 ft 244 kts 88°
2026-05-04 21:17 29.88367 -95.44317 6393 ft 249 kts 88°
2026-05-04 21:18 29.88432 -95.42302 6362 ft 253 kts 89°
2026-05-04 21:18 29.88492 -95.40311 6261 ft 248 kts 89°
2026-05-04 21:18 29.88556 -95.38361 6243 ft 239 kts 89°
2026-05-04 21:18 29.88617 -95.36433 6227 ft 242 kts 89°
2026-05-04 21:19 29.88678 -95.34477 6225 ft 247 kts 89°
2026-05-04 21:19 29.88738 -95.32519 6190 ft 247 kts 89°
2026-05-04 21:19 29.88799 -95.30548 6159 ft 245 kts 89°
2026-05-04 21:19 29.88859 -95.28592 6123 ft 243 kts 89°
2026-05-04 21:20 29.88919 -95.26650 6101 ft 242 kts 89°
2026-05-04 21:20 29.88977 -95.24731 6082 ft 241 kts 89°
2026-05-04 21:20 29.89036 -95.22790 6055 ft 241 kts 89°
2026-05-04 21:20 29.89093 -95.20861 6039 ft 241 kts 89°
2026-05-04 21:21 29.89150 -95.18921 5953 ft 244 kts 90°
2026-05-04 21:21 29.89158 -95.16937 5762 ft 248 kts 91°
2026-05-04 21:21 29.89149 -95.14994 5549 ft 241 kts 91°
2026-05-04 21:21 29.89154 -95.13067 5287 ft 233 kts 88°
2026-05-04 21:22 29.89497 -95.11280 5017 ft 235 kts 66°
2026-05-04 21:22 29.90464 -95.09762 4746 ft 237 kts 42°
2026-05-04 21:22 29.91881 -95.08785 4457 ft 241 kts 19°
2026-05-04 21:22 29.93541 -95.08463 4160 ft 245 kts 358°
2026-05-04 21:23 29.95212 -95.08841 3813 ft 246 kts 336°
2026-05-04 21:23 29.96537 -95.09848 3533 ft 245 kts 313°
2026-05-04 21:23 29.97510 -95.11452 3189 ft 246 kts 289°
2026-05-04 21:23 29.97846 -95.13002 2984 ft 238 kts 270°
2026-05-04 21:24 29.97791 -95.14866 2737 ft 230 kts 263°
2026-05-04 21:24 29.97770 -95.16712 2502 ft 230 kts 266°
2026-05-04 21:24 29.97779 -95.18563 2411 ft 228 kts 266°
2026-05-04 21:24 29.97818 -95.20351 2289 ft 223 kts 268°
2026-05-04 21:25 29.97839 -95.22150 1945 ft 226 kts 267°
2026-05-04 21:25 29.97838 -95.23994 1383 ft 233 kts 265°
2026-05-04 21:25 29.97809 -95.25824 1193 ft 223 kts 265°
2026-05-04 21:25 29.97769 -95.27619 706 ft 227 kts 265°
2026-05-04 21:26 29.97780 -95.29419 470 ft 225 kts 269°
2026-05-04 21:26 29.97779 -95.31191 229 ft 217 kts 266°
2026-05-04 21:26 29.97687 -95.33062 1025 ft 243 kts 254°
2026-05-04 21:26 29.97249 -95.34278 2105 ft 255 kts 233°
2026-05-04 21:27 29.96065 -95.35675 3071 ft 244 kts 210°
2026-05-04 21:27 29.94014 -95.35908 3202 ft 232 kts 155°
2026-05-04 21:27 29.93691 -95.35701 3101 ft 238 kts 146°
2026-05-04 21:28 29.93081 -95.35033 2969 ft 249 kts 129°
2026-05-04 21:28 29.92464 -95.33228 3250 ft 242 kts 99°
2026-05-04 21:28 29.92356 -95.31355 3634 ft 232 kts 95°
2026-05-04 21:29 29.92294 -95.29454 3532 ft 244 kts 96°
2026-05-04 21:29 29.92207 -95.27427 3318 ft 261 kts 96°
2026-05-04 21:29 29.92072 -95.25313 3309 ft 267 kts 98°
2026-05-04 21:29 29.91880 -95.23162 3288 ft 267 kts 99°
2026-05-04 21:30 29.91881 -95.21184 3482 ft 225 kts 75°
2026-05-04 21:30 29.92739 -95.19825 3361 ft 212 kts 35°
2026-05-04 21:30 29.94159 -95.19200 2798 ft 223 kts
2026-05-04 21:30 29.95662 -95.19299 2433 ft 212 kts 339°
2026-05-04 21:31 29.97626 -95.21502 1927 ft 204 kts 287°
2026-05-04 21:31 29.97805 -95.23089 1404 ft 204 kts 263°
2026-05-04 21:31 29.97777 -95.24811 1184 ft 213 kts 267°
2026-05-04 21:32 29.97786 -95.26464 757 ft 199 kts 268°
2026-05-04 21:32 29.97785 -95.27971 551 ft 175 kts 266°
2026-05-04 21:32 29.97768 -95.29272 370 ft 149 kts 267°
2026-05-04 21:32 29.97767 -95.30405 148 ft 133 kts 267°
2026-05-04 21:33 29.97762 -95.31335 103 ft 83 kts 269°
2026-05-04 21:33 29.97762 -95.31517 103 ft 0 kts 271°
2026-05-04 21:34 29.97763 -95.31540 104 ft 16 kts 271°
2026-05-04 21:34 29.97762 -95.31764 104 ft 31 kts 266°
2026-05-04 21:34 29.97763 -95.32010 103 ft 31 kts 272°
2026-05-04 21:35 29.97817 -95.32244 106 ft 20 kts 296°
2026-05-04 21:35 29.97859 -95.32346 104 ft 14 kts 287°
2026-05-04 21:35 29.97872 -95.32449 104 ft 15 kts 270°
2026-05-04 21:35 29.97873 -95.32574 104 ft 16 kts 271°
2026-05-04 21:36 29.97873 -95.32708 106 ft 17 kts 269°
2026-05-04 21:36 29.97872 -95.32842 108 ft 17 kts 270°
2026-05-04 21:36 29.97874 -95.32976 108 ft 16 kts 284°
2026-05-04 21:36 29.97971 -95.33024 107 ft 17 kts 356°
2026-05-04 21:37 29.98092 -95.33026 107 ft 18 kts
2026-05-04 21:37 29.98227 -95.33025 107 ft 20 kts
2026-05-04 21:37 29.98371 -95.33024 107 ft 21 kts
2026-05-04 21:37 29.98525 -95.33024 107 ft 22 kts 358°
2026-05-04 21:38 29.98681 -95.33026 107 ft 22 kts 359°
2026-05-04 21:38 29.98835 -95.33027 107 ft 16 kts 359°
2026-05-04 21:38 29.98892 -95.33079 107 ft 11 kts 319°
2026-05-04 21:38 29.98924 -95.33167 106 ft 15 kts 277°
2026-05-04 21:39 29.99011 -95.33212 106 ft 20 kts 353°
2026-05-04 21:39 29.99076 -95.33249 108 ft 2 kts 298°
2026-05-04 21:39 29.99087 -95.33334 108 ft 22 kts 270°
2026-05-04 21:39 29.99089 -95.33564 107 ft 26 kts 270°
2026-05-04 21:40 29.99089 -95.33688 107 ft 19 kts 269°
2026-05-04 21:40 29.99089 -95.33891 106 ft 21 kts 270°
2026-05-04 21:40 29.99087 -95.33955 106 ft 9 kts 263°
2026-05-04 21:40 29.99072 -95.34020 104 ft 7 kts 263°
2026-05-04 21:41 29.99055 -95.34080 105 ft 2 kts 195°
2026-05-04 21:41 29.99003 -95.34117 103 ft 0 kts 282°